This demonstration page uses our WeatherBlox Daily Observations layout. Learn more.

Left ArrowRight Arrow

38.89511, -77.03637

Hourly Observations for July 22, 2015

Temp ( °F °C ) Dew Point ( °F °C ) Humidity (%) Winds ( mph kmh ) Pressure ( in mb ) Visibility ( mi km ) Precip ( " mm )
12:52 am 00:52 Partly Cloudy 80 26.7 64 17.8 58 58 NW 9 15 29.75 1008 10 16 N/A
1:52 am 01:52 Mostly Clear 79 26.1 64 17.8 60 60 NW 12 19 29.76 1008 10 16 N/A
2:52 am 02:52 Mostly Clear 78 25.6 62 16.7 58 58 NW 14 22 29.78 1009 10 16 N/A
3:52 am 03:52 Clear 75 23.9 61 16.1 62 62 NW 10 17 29.80 1009 10 16 N/A
4:52 am 04:52 Clear 72 22.2 60 15.6 66 66 NNW 7 11 29.81 1010 10 16 N/A
5:52 am 05:52 Partly Cloudy 72 22.2 59 15 64 64 N 7 11 29.83 1010 10 16 N/A
6:52 am 06:52 Partly Cloudy 73 22.8 58 14.4 59 59 NW 8 13 29.85 1011 10 16 N/A
7:52 am 07:52 Partly Cloudy 75 23.9 57 13.9 54 54 NW 12 19 29.87 1012 10 16 N/A
8:52 am 08:52 Partly Cloudy 77 25 58 14.4 52 52 NNW 9 15 29.88 1012 10 16 N/A
9:52 am 09:52 Mostly Sunny 80 26.7 58 14.4 47 47 NNW 15 24 29.89 1012 10 16 N/A
10:52 am 10:52 Mostly Sunny 81 27.2 56 13.3 42 42 VRB 7 11 29.89 1012 10 16 N/A
11:52 am 11:52 Partly Cloudy 85 29.4 56 13.3 37 37 N 8 13 29.89 1012 10 16 N/A
12:52 pm 12:52 Partly Cloudy 86 30 55 12.8 35 35 NNW 12 19 29.88 1012 10 16 N/A
1:52 pm 13:52 Partly Cloudy 87 30.6 54 12.2 32 32 VRB 6 9 29.88 1012 10 16 N/A
2:52 pm 14:52 Partly Cloudy 88 31.1 56 13.3 34 34 WNW 8 13 29.87 1011 10 16 N/A
3:52 pm 15:52 Partly Cloudy 88 31.1 55 12.8 33 33 NW 10 17 29.86 1011 10 16 N/A
4:52 pm 16:52 Mostly Cloudy 88 31.1 56 13.3 34 34 W 9 15 29.86 1011 10 16 N/A
5:52 pm 17:52 Mostly Cloudy 88 31.1 56 13.3 34 34 WNW 13 20 29.86 1011 10 16 N/A
6:52 pm 18:52 Mostly Cloudy 87 30.6 56 13.3 35 35 WNW 12 19 29.87 1012 10 16 N/A
7:52 pm 19:52 Partly Cloudy 84 28.9 57 13.9 40 40 NNW 8 13 29.87 1012 10 16 N/A
8:52 pm 20:52 Partly Cloudy 82 27.8 59 15 46 46 NNW 10 17 29.89 1012 10 16 N/A
9:52 pm 21:52 Partly Cloudy 80 26.7 57 13.9 45 45 NNW 8 13 29.91 1013 10 16 N/A
10:52 pm 22:52 Mostly Cloudy 79 26.1 56 13.3 45 45 N 8 13 29.93 1014 10 16 N/A
11:52 pm 23:52 Mostly Cloudy 77 25 57 13.9 50 50 NNW 8 13 29.95 1014 10 16 N/A

Powered by AerisWeather